Time,TemperatureF,DewpointF,PressureIn,WindDirection,WindDirectionDegrees,WindSpeedMPH,WindSpeedGustMPH,Humidity,HourlyPrecipIn,Conditions,Clouds,dailyrainin,SoftwareType,DateUTC
2013-03-03 00:00:00,49.7,32.7,28.05,NNW,344,5.4,5.7,51,0.00,,,0.00,proprietary,2013-03-03 07:00:00,
2013-03-03 00:06:00,49.7,32.3,28.05,North,0,6.0,6.1,50,0.00,,,0.00,proprietary,2013-03-03 07:06:00,
2013-03-03 00:11:00,50.8,32.1,28.04,North,0,6.0,6.2,48,0.00,,,0.00,proprietary,2013-03-03 07:11:00,
2013-03-03 00:16:00,51.3,31.9,28.04,North,7,3.9,4.2,47,0.00,,,0.00,proprietary,2013-03-03 07:16:00,
2013-03-03 00:21:00,51.6,31.8,28.04,North,6,3.8,4.2,46,0.00,,,0.00,proprietary,2013-03-03 07:21:00,
2013-03-03 00:26:00,51.7,31.7,28.04,North,1,4.9,5.1,46,0.00,,,0.00,proprietary,2013-03-03 07:26:00,
2013-03-03 00:31:00,51.7,31.5,28.04,North,355,6.8,7.1,45,0.00,,,0.00,proprietary,2013-03-03 07:31:00,
2013-03-03 00:37:00,51.8,31.5,28.04,North,1,6.8,7.2,45,0.00,,,0.00,proprietary,2013-03-03 07:37:00,
2013-03-03 00:42:00,51.3,31.4,28.04,NNE,17,6.2,7.3,46,0.00,,,0.00,proprietary,2013-03-03 07:42:00,
2013-03-03 00:47:00,51.3,31.2,28.04,NNE,14,7.5,8.1,45,0.00,,,0.00,proprietary,2013-03-03 07:47:00,
2013-03-03 00:52:00,51.2,31.1,28.03,NNE,23,8.2,8.8,45,0.00,,,0.00,proprietary,2013-03-03 07:52:00,
2013-03-03 00:57:00,51.5,31.0,28.03,NNE,25,6.3,6.9,45,0.00,,,0.00,proprietary,2013-03-03 07:57:00,
2013-03-03 01:02:00,51.6,31.1,28.03,NNE,32,6.4,7.1,45,0.00,,,0.00,proprietary,2013-03-03 08:02:00,
2013-03-03 01:08:00,52.1,30.9,28.03,NNE,25,6.4,7.2,44,0.00,,,0.00,proprietary,2013-03-03 08:08:00,
2013-03-03 01:15:00,52.6,30.6,28.03,NE,40,6.0,6.9,42,0.00,,,0.00,proprietary,2013-03-03 08:15:00,
2013-03-03 01:20:00,52.9,30.5,28.03,NNE,24,7.4,7.7,42,0.00,,,0.00,proprietary,2013-03-03 08:20:00,
2013-03-03 01:25:00,53.3,30.4,28.03,NE,35,5.2,5.8,41,0.00,,,0.00,proprietary,2013-03-03 08:25:00,
2013-03-03 01:30:00,53.5,30.1,28.03,NNE,20,5.4,5.8,40,0.00,,,0.00,proprietary,2013-03-03 08:30:00,
2013-03-03 01:35:00,54.0,30.0,28.03,North,0,5.2,5.7,39,0.00,,,0.00,proprietary,2013-03-03 08:35:00,
2013-03-03 01:40:00,53.1,31.1,28.02,NNE,14,3.4,3.9,42,0.00,,,0.00,proprietary,2013-03-03 08:40:00,
2013-03-03 01:45:00,50.6,31.3,28.02,NNW,339,3.9,4.4,47,0.00,,,0.00,proprietary,2013-03-03 08:45:00,
2013-03-03 01:50:00,49.5,31.5,28.02,NNW,343,4.1,4.6,49,0.00,,,0.00,proprietary,2013-03-03 08:50:00,
2013-03-03 01:55:00,48.9,31.7,28.02,North,351,4.5,4.6,51,0.00,,,0.00,proprietary,2013-03-03 08:55:00,
2013-03-03 02:00:00,48.6,31.6,28.02,North,352,3.2,3.6,51,0.00,,,0.00,proprietary,2013-03-03 09:00:00,
2013-03-03 02:05:00,48.3,31.4,28.02,North,354,6.1,6.4,51,0.00,,,0.00,proprietary,2013-03-03 09:05:00,
2013-03-03 02:11:00,48.7,31.2,28.02,North,4,3.7,4.4,50,0.00,,,0.00,proprietary,2013-03-03 09:11:00,
2013-03-03 02:16:00,48.7,31.4,28.02,North,5,4.5,5.0,50,0.00,,,0.00,proprietary,2013-03-03 09:16:00,
2013-03-03 02:21:00,48.3,31.7,28.02,North,349,4.0,4.3,52,0.00,,,0.00,proprietary,2013-03-03 09:21:00,
2013-03-03 02:26:00,47.3,31.8,28.01,NNW,348,3.7,4.2,54,0.00,,,0.00,proprietary,2013-03-03 09:26:00,
2013-03-03 02:31:00,46.7,31.6,28.01,North,350,5.0,5.4,55,0.00,,,0.00,proprietary,2013-03-03 09:31:00,
2013-03-03 02:36:00,46.6,31.4,28.01,North,8,4.4,5.3,55,0.00,,,0.00,proprietary,2013-03-03 09:36:00,
2013-03-03 02:41:00,46.8,31.4,28.01,NNE,14,2.8,3.0,54,0.00,,,0.00,proprietary,2013-03-03 09:41:00,
2013-03-03 02:46:00,46.6,31.6,28.01,NNW,345,4.3,4.7,55,0.00,,,0.00,proprietary,2013-03-03 09:46:00,
2013-03-03 02:52:00,45.9,31.5,28.01,North,357,6.0,6.8,56,0.00,,,0.00,proprietary,2013-03-03 09:52:00,
2013-03-03 02:58:00,46.6,31.0,28.01,NNE,14,6.5,7.1,54,0.00,,,0.00,proprietary,2013-03-03 09:58:00,
2013-03-03 03:03:00,47.7,30.9,28.00,NNE,14,6.6,6.8,52,0.00,,,0.00,proprietary,2013-03-03 10:03:00,
2013-03-03 03:08:00,47.9,30.7,28.00,NNE,18,5.3,5.7,51,0.00,,,0.00,proprietary,2013-03-03 10:08:00,
2013-03-03 03:13:00,48.5,30.4,28.00,NNE,15,5.0,5.5,49,0.00,,,0.00,proprietary,2013-03-03 10:13:00,
2013-03-03 03:18:00,49.2,30.3,28.00,NNE,20,5.2,5.5,48,0.00,,,0.00,proprietary,2013-03-03 10:18:00,
2013-03-03 03:23:00,49.6,30.2,27.99,NNE,16,4.1,4.5,46,0.00,,,0.00,proprietary,2013-03-03 10:23:00,
2013-03-03 03:28:00,49.9,30.3,27.99,NNE,12,2.9,3.9,46,0.00,,,0.00,proprietary,2013-03-03 10:28:00,
2013-03-03 03:33:00,49.9,30.1,27.99,NNE,29,3.0,3.3,46,0.00,,,0.00,proprietary,2013-03-03 10:33:00,
2013-03-03 03:38:00,50.3,30.1,27.98,ENE,68,2.2,2.6,45,0.00,,,0.00,proprietary,2013-03-03 10:38:00,
2013-03-03 03:43:00,50.7,29.6,27.98,East,92,4.8,5.1,44,0.00,,,0.00,proprietary,2013-03-03 10:43:00,
2013-03-03 03:49:00,50.7,29.9,27.98,East,95,4.1,4.6,44,0.00,,,0.00,proprietary,2013-03-03 10:49:00,
2013-03-03 03:54:00,49.7,30.6,27.97,NW,324,1.7,2.4,47,0.00,,,0.00,proprietary,2013-03-03 10:54:00,
2013-03-03 03:59:00,47.7,31.4,27.97,NNW,330,5.1,5.7,52,0.00,,,0.00,proprietary,2013-03-03 10:59:00,
2013-03-03 04:04:00,46.1,31.5,27.97,NNW,331,6.5,7.1,56,0.00,,,0.00,proprietary,2013-03-03 11:04:00,
2013-03-03 04:09:00,45.5,31.4,27.98,NNW,332,8.3,9.0,57,0.00,,,0.00,proprietary,2013-03-03 11:09:00,
2013-03-03 04:14:00,45.2,31.4,27.98,NNW,346,7.0,7.8,58,0.00,,,0.00,proprietary,2013-03-03 11:14:00,
2013-03-03 04:19:00,45.2,31.2,27.98,North,8,6.8,7.4,57,0.00,,,0.00,proprietary,2013-03-03 11:19:00,
2013-03-03 04:24:00,46.2,30.7,27.98,North,11,6.4,7.3,54,0.00,,,0.00,proprietary,2013-03-03 11:24:00,
2013-03-03 04:30:00,47.9,30.4,27.98,NNE,32,5.6,7.0,50,0.00,,,0.00,proprietary,2013-03-03 11:30:00,
2013-03-03 04:35:00,49.3,29.8,27.98,NE,36,6.5,7.0,46,0.00,,,0.00,proprietary,2013-03-03 11:35:00,
2013-03-03 04:40:00,50.5,29.7,27.97,NE,45,7.4,8.0,44,0.00,,,0.00,proprietary,2013-03-03 11:40:00,
2013-03-03 04:45:00,50.6,29.5,27.97,NE,48,6.5,7.4,44,0.00,,,0.00,proprietary,2013-03-03 11:45:00,
2013-03-03 04:51:00,50.6,29.6,27.98,NE,46,6.4,7.0,44,0.00,,,0.00,proprietary,2013-03-03 11:51:00,
2013-03-03 04:57:00,51.0,29.6,27.98,NE,56,6.6,6.9,43,0.00,,,0.00,proprietary,2013-03-03 11:57:00,
2013-03-03 05:02:00,51.5,29.4,27.97,NE,52,6.5,6.9,42,0.00,,,0.00,proprietary,2013-03-03 12:02:00,
2013-03-03 05:07:00,52.1,29.5,27.98,ENE,66,3.1,3.5,41,0.00,,,0.00,proprietary,2013-03-03 12:07:00,
2013-03-03 05:12:00,52.0,29.2,27.97,ENE,68,2.8,3.4,41,0.00,,,0.00,proprietary,2013-03-03 12:12:00,
2013-03-03 05:17:00,50.1,31.3,27.97,ENE,66,2.2,2.6,48,0.00,,,0.00,proprietary,2013-03-03 12:17:00,
2013-03-03 05:22:00,49.0,30.3,27.96,East,80,4.3,4.8,48,0.00,,,0.00,proprietary,2013-03-03 12:22:00,
2013-03-03 05:27:00,49.5,31.0,27.96,North,0,0.0,0.0,48,0.00,,,0.00,proprietary,2013-03-03 12:27:00,
2013-03-03 05:32:00,48.1,31.4,27.96,NW,313,4.3,4.3,52,0.00,,,0.00,proprietary,2013-03-03 12:32:00,
2013-03-03 05:37:00,46.8,31.7,27.96,NNW,329,6.1,6.4,55,0.00,,,0.00,proprietary,2013-03-03 12:37:00,
2013-03-03 05:42:00,46.1,31.7,27.97,NNW,328,8.1,8.8,57,0.00,,,0.00,proprietary,2013-03-03 12:42:00,
2013-03-03 05:47:00,45.8,31.5,27.97,North,353,7.2,8.0,56,0.00,,,0.00,proprietary,2013-03-03 12:47:00,
2013-03-03 05:52:00,46.7,31.1,27.97,NNE,12,4.4,4.8,54,0.00,,,0.00,proprietary,2013-03-03 12:52:00,
2013-03-03 05:57:00,47.5,31.1,27.98,North,6,6.4,7.5,52,0.00,,,0.00,proprietary,2013-03-03 12:57:00,
2013-03-03 06:02:00,48.0,31.0,27.98,NNE,22,7.4,8.9,51,0.00,,,0.00,proprietary,2013-03-03 13:02:00,
2013-03-03 06:07:00,48.4,31.0,27.98,NE,41,7.5,8.9,50,0.00,,,0.00,proprietary,2013-03-03 13:07:00,
2013-03-03 06:12:00,48.9,30.9,27.98,NE,36,6.2,7.3,49,0.00,,,0.00,proprietary,2013-03-03 13:12:00,
2013-03-03 06:17:00,49.6,30.8,27.98,NE,36,6.4,7.8,48,0.00,,,0.00,proprietary,2013-03-03 13:17:00,
2013-03-03 06:22:00,51.0,30.0,27.98,NE,39,8.4,9.4,44,0.00,,,0.00,proprietary,2013-03-03 13:22:00,
2013-03-03 06:27:00,51.8,29.9,27.97,NE,51,9.5,10.9,42,0.00,,,0.00,proprietary,2013-03-03 13:27:00,
2013-03-03 06:32:00,52.6,29.6,27.98,NE,47,7.8,8.8,41,0.00,,,0.00,proprietary,2013-03-03 13:32:00,
2013-03-03 06:37:00,53.6,29.3,27.98,NE,56,6.2,7.1,38,0.00,,,0.00,proprietary,2013-03-03 13:37:00,
2013-03-03 06:42:00,53.8,29.7,27.98,ENE,63,5.8,7.1,39,0.00,,,0.00,proprietary,2013-03-03 13:42:00,
2013-03-03 06:47:00,54.3,29.5,27.98,ENE,64,7.3,7.7,38,0.00,,,0.00,proprietary,2013-03-03 13:47:00,
2013-03-03 06:52:00,55.0,29.2,27.98,ENE,58,6.3,6.9,37,0.00,,,0.00,proprietary,2013-03-03 13:52:00,
2013-03-03 06:57:00,55.1,29.3,27.99,NE,41,2.2,3.0,36,0.00,,,0.00,proprietary,2013-03-03 13:57:00,
2013-03-03 07:02:00,53.5,31.9,27.99,NNW,332,1.9,3.5,43,0.00,,,0.00,proprietary,2013-03-03 14:02:00,
2013-03-03 07:07:00,51.5,32.3,27.98,NNW,336,5.1,5.8,47,0.00,,,0.00,proprietary,2013-03-03 14:07:00,
2013-03-03 07:12:00,50.3,32.6,27.98,NNW,347,5.8,6.5,50,0.00,,,0.00,proprietary,2013-03-03 14:12:00,
2013-03-03 07:17:00,50.0,32.0,27.98,NNE,27,4.6,5.5,49,0.00,,,0.00,proprietary,2013-03-03 14:17:00,
2013-03-03 07:22:00,51.0,31.7,27.98,NE,50,5.6,6.3,47,0.00,,,0.00,proprietary,2013-03-03 14:22:00,
2013-03-03 07:27:00,52.6,31.6,27.98,ENE,70,4.1,4.8,44,0.00,,,0.00,proprietary,2013-03-03 14:27:00,
2013-03-03 07:32:00,53.9,31.1,27.98,ENE,68,4.4,6.6,41,0.00,,,0.00,proprietary,2013-03-03 14:32:00,
2013-03-03 07:37:00,53.0,31.7,27.98,ENE,68,2.5,3.7,43,0.00,,,0.00,proprietary,2013-03-03 14:37:00,
2013-03-03 07:42:00,53.1,32.3,27.98,ESE,106,0.2,1.2,44,0.00,,,0.00,proprietary,2013-03-03 14:42:00,
2013-03-03 07:48:00,50.7,33.4,27.98,NW,312,6.0,6.5,51,0.00,,,0.00,proprietary,2013-03-03 14:48:00,
2013-03-03 07:53:00,49.8,33.0,27.98,NNW,348,3.5,3.9,52,0.00,,,0.00,proprietary,2013-03-03 14:53:00,
2013-03-03 07:58:00,50.1,32.9,27.98,North,0,3.4,3.8,51,0.00,,,0.00,proprietary,2013-03-03 14:58:00,
2013-03-03 08:03:00,50.9,32.9,27.98,North,359,3.8,4.2,49,0.00,,,0.00,proprietary,2013-03-03 15:03:00,
2013-03-03 08:08:00,51.5,32.5,27.99,NNE,13,2.5,2.7,48,0.00,,,0.00,proprietary,2013-03-03 15:08:00,
2013-03-03 08:13:00,52.5,32.5,27.98,East,84,3.5,3.7,46,0.00,,,0.00,proprietary,2013-03-03 15:13:00,
2013-03-03 08:18:00,53.0,32.9,27.98,East,81,2.8,3.0,46,0.00,,,0.00,proprietary,2013-03-03 15:18:00,
2013-03-03 08:23:00,53.7,32.9,27.99,NNW,347,2.2,2.5,44,0.00,,,0.00,proprietary,2013-03-03 15:23:00,
2013-03-03 08:28:00,54.0,33.8,27.99,NW,322,4.3,4.6,46,0.00,,,0.00,proprietary,2013-03-03 15:28:00,
2013-03-03 08:33:00,54.2,32.8,27.99,NNE,16,2.3,2.8,44,0.00,,,0.00,proprietary,2013-03-03 15:33:00,
2013-03-03 08:38:00,55.0,32.1,27.99,ESE,105,2.5,2.8,41,0.00,,,0.00,proprietary,2013-03-03 15:38:00,
2013-03-03 08:43:00,56.2,33.2,27.99,ESE,115,4.6,4.8,41,0.00,,,0.00,proprietary,2013-03-03 15:43:00,
2013-03-03 08:49:00,58.0,32.7,27.98,SE,133,5.6,5.7,38,0.00,,,0.00,proprietary,2013-03-03 15:49:00,
2013-03-03 08:54:00,59.0,33.5,27.98,SE,139,4.4,4.6,38,0.00,,,0.00,proprietary,2013-03-03 15:54:00,
2013-03-03 08:59:00,60.0,32.4,27.97,SSE,159,2.9,3.3,35,0.00,,,0.00,proprietary,2013-03-03 15:59:00,
2013-03-03 09:04:00,60.8,33.7,27.98,WSW,241,2.3,2.6,35,0.00,,,0.00,proprietary,2013-03-03 16:04:00,
2013-03-03 09:09:00,60.7,34.5,27.98,WSW,257,3.2,3.4,37,0.00,,,0.00,proprietary,2013-03-03 16:09:00,
2013-03-03 09:14:00,59.3,35.2,27.97,NW,315,5.8,5.9,40,0.00,,,0.00,proprietary,2013-03-03 16:14:00,
2013-03-03 09:19:00,58.5,34.0,27.97,NW,325,3.7,4.4,39,0.00,,,0.00,proprietary,2013-03-03 16:19:00,
2013-03-03 09:24:00,58.6,34.7,27.97,NNW,341,3.1,3.3,40,0.00,,,0.00,proprietary,2013-03-03 16:24:00,
2013-03-03 09:29:00,58.8,35.0,27.97,NW,320,3.3,3.7,40,0.00,,,0.00,proprietary,2013-03-03 16:29:00,
2013-03-03 09:34:00,58.8,35.0,27.97,NW,326,3.2,3.5,40,0.00,,,0.00,proprietary,2013-03-03 16:34:00,
2013-03-03 09:39:00,58.8,35.0,27.97,NNW,341,2.5,3.0,40,0.00,,,0.00,proprietary,2013-03-03 16:39:00,
2013-03-03 09:44:00,59.1,35.5,27.97,North,351,3.6,4.0,41,0.00,,,0.00,proprietary,2013-03-03 16:44:00,
2013-03-03 09:49:00,59.3,35.0,27.97,North,1,1.8,2.3,39,0.00,,,0.00,proprietary,2013-03-03 16:49:00,
2013-03-03 09:54:00,60.0,33.7,27.97,NNW,334,1.4,1.7,37,0.00,,,0.00,proprietary,2013-03-03 16:54:00,
2013-03-03 09:59:00,60.9,32.5,27.98,WSW,254,0.3,1.3,34,0.00,,,0.00,proprietary,2013-03-03 16:59:00,
2013-03-03 10:04:00,62.2,32.7,27.98,SW,214,0.8,1.8,33,0.00,,,0.00,proprietary,2013-03-03 17:04:00,
2013-03-03 10:09:00,63.1,31.8,27.98,SW,225,2.4,3.3,30,0.00,,,0.00,proprietary,2013-03-03 17:09:00,
2013-03-03 10:14:00,63.5,32.4,27.97,SSE,164,2.1,2.5,31,0.00,,,0.00,proprietary,2013-03-03 17:14:00,
2013-03-03 10:19:00,63.7,31.5,27.97,South,183,3.7,4.6,29,0.00,,,0.00,proprietary,2013-03-03 17:19:00,
2013-03-03 10:24:00,63.8,32.5,27.97,South,179,4.9,5.5,30,0.00,,,0.00,proprietary,2013-03-03 17:24:00,
2013-03-03 10:29:00,64.1,32.2,27.97,SSW,200,5.5,6.2,30,0.00,,,0.00,proprietary,2013-03-03 17:29:00,
2013-03-03 10:34:00,64.7,32.0,27.97,SSW,198,6.7,7.3,29,0.00,,,0.00,proprietary,2013-03-03 17:34:00,
2013-03-03 10:39:00,65.2,32.2,27.97,SSW,204,6.4,7.2,28,0.00,,,0.00,proprietary,2013-03-03 17:39:00,
2013-03-03 10:44:00,65.8,32.2,27.97,SSW,192,6.4,7.0,28,0.00,,,0.00,proprietary,2013-03-03 17:44:00,
2013-03-03 10:49:00,66.3,32.3,27.97,South,186,7.5,8.6,28,0.00,,,0.00,proprietary,2013-03-03 17:49:00,
2013-03-03 10:54:00,66.7,31.8,27.97,South,190,6.5,7.6,27,0.00,,,0.00,proprietary,2013-03-03 17:54:00,
2013-03-03 10:59:00,67.1,31.8,27.97,South,178,7.3,10.0,26,0.00,,,0.00,proprietary,2013-03-03 17:59:00,
2013-03-03 11:04:00,68.2,29.2,27.97,South,177,10.7,11.4,23,0.00,,,0.00,proprietary,2013-03-03 18:04:00,
2013-03-03 11:09:00,68.7,28.7,27.97,South,175,10.1,12.6,22,0.00,,,0.00,proprietary,2013-03-03 18:09:00,
2013-03-03 11:14:00,68.8,28.0,27.96,SSE,166,14.2,15.2,21,0.00,,,0.00,proprietary,2013-03-03 18:14:00,
2013-03-03 11:19:00,69.2,28.4,27.96,South,180,13.4,14.8,21,0.00,,,0.00,proprietary,2013-03-03 18:19:00,
2013-03-03 11:24:00,69.2,28.2,27.95,South,170,16.9,18.5,21,0.00,,,0.00,proprietary,2013-03-03 18:24:00,
2013-03-03 11:29:00,69.2,27.9,27.95,SSE,159,14.3,15.7,21,0.00,,,0.00,proprietary,2013-03-03 18:29:00,
2013-03-03 11:34:00,69.0,27.5,27.96,SSE,168,14.2,15.7,20,0.00,,,0.00,proprietary,2013-03-03 18:34:00,
2013-03-03 11:40:00,69.1,27.7,27.96,South,172,14.7,16.0,21,0.00,,,0.00,proprietary,2013-03-03 18:40:00,
2013-03-03 11:45:00,69.1,27.9,27.96,South,178,10.6,12.4,21,0.00,,,0.00,proprietary,2013-03-03 18:45:00,
2013-03-03 11:50:00,69.1,28.5,27.95,SSE,168,15.0,16.4,21,0.00,,,0.00,proprietary,2013-03-03 18:50:00,
2013-03-03 11:55:00,68.9,28.2,27.95,South,169,11.1,12.7,21,0.00,,,0.00,proprietary,2013-03-03 18:55:00,
2013-03-03 12:00:00,69.2,28.0,27.95,SSE,166,10.2,11.9,21,0.00,,,0.00,proprietary,2013-03-03 19:00:00,
2013-03-03 12:05:00,69.3,28.3,27.95,South,177,12.0,16.0,21,0.00,,,0.00,proprietary,2013-03-03 19:05:00,
2013-03-03 12:10:00,69.5,28.2,27.94,SSE,166,13.5,14.6,21,0.00,,,0.00,proprietary,2013-03-03 19:10:00,
2013-03-03 12:15:00,69.8,28.1,27.94,South,179,14.7,15.9,20,0.00,,,0.00,proprietary,2013-03-03 19:15:00,
2013-03-03 12:20:00,70.0,27.9,27.94,South,179,13.7,15.5,20,0.00,,,0.00,proprietary,2013-03-03 19:20:00,
2013-03-03 12:25:00,70.2,27.6,27.94,South,172,13.0,15.1,20,0.00,,,0.00,proprietary,2013-03-03 19:25:00,
2013-03-03 12:30:00,71.0,28.0,27.94,South,185,12.8,14.5,20,0.00,,,0.00,proprietary,2013-03-03 19:30:00,
2013-03-03 12:35:00,70.7,27.5,27.94,South,178,13.4,14.4,19,0.00,,,0.00,proprietary,2013-03-03 19:35:00,
2013-03-03 12:40:00,70.8,26.6,27.94,SSE,166,14.5,15.9,19,0.00,,,0.00,proprietary,2013-03-03 19:40:00,
2013-03-03 12:45:00,70.7,26.7,27.94,South,178,11.4,12.6,19,0.00,,,0.00,proprietary,2013-03-03 19:45:00,
2013-03-03 12:50:00,70.8,27.1,27.94,SSW,194,12.4,14.5,19,0.00,,,0.00,proprietary,2013-03-03 19:50:00,
2013-03-03 12:55:00,70.6,26.8,27.94,South,177,12.4,13.9,19,0.00,,,0.00,proprietary,2013-03-03 19:55:00,
2013-03-03 13:00:00,70.7,26.6,27.94,South,174,13.9,15.4,19,0.00,,,0.00,proprietary,2013-03-03 20:00:00,
2013-03-03 13:06:00,70.5,27.1,27.93,South,180,14.2,15.5,19,0.00,,,0.00,proprietary,2013-03-03 20:06:00,
2013-03-03 13:11:00,71.0,26.4,27.93,South,177,14.1,15.8,18,0.00,,,0.00,proprietary,2013-03-03 20:11:00,
2013-03-03 13:17:00,71.1,27.1,27.93,SSE,168,13.3,14.9,19,0.00,,,0.00,proprietary,2013-03-03 20:17:00,
2013-03-03 13:22:00,71.4,26.4,27.92,South,181,11.4,12.6,18,0.00,,,0.00,proprietary,2013-03-03 20:22:00,
2013-03-03 13:27:00,71.1,26.0,27.92,South,169,12.8,14.0,18,0.00,,,0.00,proprietary,2013-03-03 20:27:00,
2013-03-03 13:32:00,71.0,25.7,27.92,South,175,10.8,13.3,18,0.00,,,0.00,proprietary,2013-03-03 20:32:00,
2013-03-03 13:37:00,70.9,27.0,27.92,South,176,11.1,12.7,19,0.00,,,0.00,proprietary,2013-03-03 20:37:00,
2013-03-03 13:43:00,71.8,27.1,27.91,South,179,7.3,9.3,18,0.00,,,0.00,proprietary,2013-03-03 20:43:00,
2013-03-03 13:48:00,72.3,25.3,27.91,South,178,13.4,15.4,17,0.00,,,0.00,proprietary,2013-03-03 20:48:00,
2013-03-03 13:53:00,72.0,26.4,27.91,SW,233,7.6,8.5,18,0.00,,,0.00,proprietary,2013-03-03 20:53:00,
2013-03-03 13:58:00,71.7,26.2,27.91,South,186,8.0,9.5,18,0.00,,,0.00,proprietary,2013-03-03 20:58:00,
2013-03-03 14:03:00,71.5,26.5,27.90,SSW,195,11.1,13.2,18,0.00,,,0.00,proprietary,2013-03-03 21:03:00,
2013-03-03 14:08:00,71.8,27.1,27.90,SSW,193,11.6,16.4,18,0.00,,,0.00,proprietary,2013-03-03 21:08:00,
2013-03-03 14:13:00,72.7,27.1,27.90,South,180,10.2,11.6,18,0.00,,,0.00,proprietary,2013-03-03 21:13:00,
2013-03-03 14:18:00,73.1,27.4,27.90,SSW,203,10.9,12.7,18,0.00,,,0.00,proprietary,2013-03-03 21:18:00,
2013-03-03 14:23:00,72.5,27.5,27.90,South,188,10.5,12.9,18,0.00,,,0.00,proprietary,2013-03-03 21:23:00,
2013-03-03 14:28:00,71.7,26.8,27.90,South,170,11.6,13.4,18,0.00,,,0.00,proprietary,2013-03-03 21:28:00,
2013-03-03 14:33:00,71.6,27.2,27.90,South,188,10.2,12.4,19,0.00,,,0.00,proprietary,2013-03-03 21:33:00,
2013-03-03 14:38:00,71.2,26.7,27.90,SSW,193,8.8,10.1,18,0.00,,,0.00,proprietary,2013-03-03 21:38:00,
2013-03-03 14:43:00,71.0,26.1,27.90,SSW,202,8.6,10.9,18,0.00,,,0.00,proprietary,2013-03-03 21:43:00,
2013-03-03 14:48:00,70.8,26.3,27.90,South,189,9.2,10.2,18,0.00,,,0.00,proprietary,2013-03-03 21:48:00,
2013-03-03 14:53:00,71.1,26.4,27.90,SSE,165,10.5,11.9,18,0.00,,,0.00,proprietary,2013-03-03 21:53:00,
2013-03-03 14:58:00,71.2,26.3,27.90,SSW,193,6.6,8.6,18,0.00,,,0.00,proprietary,2013-03-03 21:58:00,
2013-03-03 15:03:00,71.4,26.6,27.89,South,173,9.2,10.3,18,0.00,,,0.00,proprietary,2013-03-03 22:03:00,
2013-03-03 15:08:00,72.0,26.5,27.89,South,175,10.9,12.5,18,0.00,,,0.00,proprietary,2013-03-03 22:08:00,
2013-03-03 15:13:00,71.4,26.1,27.89,South,170,6.4,7.2,18,0.00,,,0.00,proprietary,2013-03-03 22:13:00,
2013-03-03 15:18:00,71.5,26.8,27.88,SSE,153,9.8,11.8,18,0.00,,,0.00,proprietary,2013-03-03 22:18:00,
2013-03-03 15:23:00,71.7,26.0,27.89,SSE,167,11.1,13.6,18,0.00,,,0.00,proprietary,2013-03-03 22:23:00,
2013-03-03 15:28:00,72.0,26.5,27.89,SSE,160,12.0,13.1,18,0.00,,,0.00,proprietary,2013-03-03 22:28:00,
2013-03-03 15:33:00,71.7,26.7,27.89,SSE,159,11.9,14.0,18,0.00,,,0.00,proprietary,2013-03-03 22:33:00,
2013-03-03 15:39:00,71.8,26.6,27.88,SSE,166,11.2,12.9,18,0.00,,,0.00,proprietary,2013-03-03 22:39:00,
2013-03-03 15:44:00,71.9,26.7,27.88,SSE,164,10.5,12.0,18,0.00,,,0.00,proprietary,2013-03-03 22:44:00,
2013-03-03 15:49:00,72.6,27.2,27.88,SSE,163,12.5,14.1,18,0.00,,,0.00,proprietary,2013-03-03 22:49:00,
2013-03-03 15:54:00,72.2,26.9,27.87,SSE,161,10.9,12.6,18,0.00,,,0.00,proprietary,2013-03-03 22:54:00,
2013-03-03 16:00:00,72.1,27.3,27.87,SSE,162,11.9,13.6,18,0.00,,,0.00,proprietary,2013-03-03 23:00:00,
2013-03-03 16:05:00,72.1,26.9,27.87,SSE,164,13.1,14.2,18,0.00,,,0.00,proprietary,2013-03-03 23:05:00,
2013-03-03 16:10:00,72.0,27.4,27.87,SSE,165,11.1,13.2,18,0.00,,,0.00,proprietary,2013-03-03 23:10:00,
2013-03-03 16:15:00,71.8,26.9,27.87,SSE,165,12.5,14.5,18,0.00,,,0.00,proprietary,2013-03-03 23:15:00,
2013-03-03 16:20:00,71.8,27.2,27.87,SSE,167,12.6,14.6,18,0.00,,,0.00,proprietary,2013-03-03 23:20:00,
2013-03-03 16:25:00,71.5,26.9,27.87,SSE,167,14.2,14.8,18,0.00,,,0.00,proprietary,2013-03-03 23:25:00,
2013-03-03 16:30:00,71.5,27.4,27.86,SSE,163,12.6,14.8,19,0.00,,,0.00,proprietary,2013-03-03 23:30:00,
2013-03-03 16:36:00,71.3,25.9,27.86,SSE,164,17.2,18.0,18,0.00,,,0.00,proprietary,2013-03-03 23:36:00,
2013-03-03 16:41:00,71.2,25.7,27.86,South,172,17.0,18.9,18,0.00,,,0.00,proprietary,2013-03-03 23:41:00,
2013-03-03 16:46:00,71.5,27.0,27.86,SSE,165,14.0,16.4,18,0.00,,,0.00,proprietary,2013-03-03 23:46:00,
2013-03-03 16:51:00,71.7,26.6,27.86,SSE,154,12.1,14.8,18,0.00,,,0.00,proprietary,2013-03-03 23:51:00,
2013-03-03 16:56:00,71.3,27.0,27.85,SSE,168,13.1,15.8,19,0.00,,,0.00,proprietary,2013-03-03 23:56:00,
2013-03-03 17:01:00,71.0,27.6,27.85,SSE,162,14.6,18.2,19,0.00,,,0.00,proprietary,2013-03-04 00:01:00,
2013-03-03 17:06:00,70.7,27.5,27.85,SSE,168,17.2,20.6,19,0.00,,,0.00,proprietary,2013-03-04 00:06:00,
2013-03-03 17:11:00,70.5,27.8,27.85,SSE,167,15.2,18.1,20,0.00,,,0.00,proprietary,2013-03-04 00:11:00,
2013-03-03 17:16:00,70.5,27.3,27.85,South,171,16.5,19.5,19,0.00,,,0.00,proprietary,2013-03-04 00:16:00,
2013-03-03 17:21:00,70.3,27.3,27.85,South,175,17.6,19.9,19,0.00,,,0.00,proprietary,2013-03-04 00:21:00,
2013-03-03 17:26:00,69.9,27.2,27.85,South,170,15.0,17.7,20,0.00,,,0.00,proprietary,2013-03-04 00:26:00,
2013-03-03 17:31:00,69.7,27.1,27.84,SSE,164,18.1,20.0,20,0.00,,,0.00,proprietary,2013-03-04 00:31:00,
2013-03-03 17:36:00,69.6,27.3,27.84,SSE,163,18.0,20.5,20,0.00,,,0.00,proprietary,2013-03-04 00:36:00,
2013-03-03 17:41:00,69.4,27.4,27.84,SSE,154,15.3,18.8,20,0.00,,,0.00,proprietary,2013-03-04 00:41:00,
2013-03-03 17:46:00,69.4,27.8,27.84,SSE,160,16.9,18.2,20,0.00,,,0.00,proprietary,2013-03-04 00:46:00,
2013-03-03 17:51:00,69.3,28.0,27.84,SSE,158,14.2,15.8,21,0.00,,,0.00,proprietary,2013-03-04 00:51:00,
2013-03-03 17:56:00,69.2,28.3,27.84,SSE,156,11.4,13.1,21,0.00,,,0.00,proprietary,2013-03-04 00:56:00,
2013-03-03 18:01:00,68.9,28.5,27.84,SE,146,11.7,13.5,22,0.00,,,0.00,proprietary,2013-03-04 01:01:00,
2013-03-03 18:06:00,68.7,28.5,27.84,SSE,147,11.3,13.1,22,0.00,,,0.00,proprietary,2013-03-04 01:06:00,
2013-03-03 18:11:00,68.6,28.6,27.84,SSE,151,11.0,12.6,22,0.00,,,0.00,proprietary,2013-03-04 01:11:00,
2013-03-03 18:16:00,68.2,28.8,27.84,SSE,156,9.7,10.7,22,0.00,,,0.00,proprietary,2013-03-04 01:16:00,
2013-03-03 18:21:00,67.9,28.9,27.84,SE,145,10.9,12.1,23,0.00,,,0.00,proprietary,2013-03-04 01:21:00,
2013-03-03 18:26:00,67.5,29.0,27.84,SE,144,9.7,11.4,23,0.00,,,0.00,proprietary,2013-03-04 01:26:00,
2013-03-03 18:31:00,67.1,29.1,27.84,SE,141,9.4,10.7,23,0.00,,,0.00,proprietary,2013-03-04 01:31:00,
2013-03-03 18:36:00,66.7,29.0,27.83,SE,143,9.0,10.5,24,0.00,,,0.00,proprietary,2013-03-04 01:36:00,
2013-03-03 18:41:00,66.4,28.9,27.83,SE,145,7.6,9.3,24,0.00,,,0.00,proprietary,2013-03-04 01:41:00,
2013-03-03 18:46:00,66.2,28.5,27.83,SSE,147,10.5,11.6,24,0.00,,,0.00,proprietary,2013-03-04 01:46:00,
2013-03-03 18:51:00,66.3,28.1,27.83,SE,145,10.6,13.0,23,0.00,,,0.00,proprietary,2013-03-04 01:51:00,
2013-03-03 18:56:00,66.2,27.8,27.83,SE,142,11.6,14.2,23,0.00,,,0.00,proprietary,2013-03-04 01:56:00,
2013-03-03 19:01:00,66.1,27.5,27.83,SE,146,10.7,12.5,23,0.00,,,0.00,proprietary,2013-03-04 02:01:00,
2013-03-03 19:06:00,65.9,27.4,27.83,SE,143,11.3,14.2,23,0.00,,,0.00,proprietary,2013-03-04 02:06:00,
2013-03-03 19:11:00,65.8,27.2,27.83,SE,139,10.7,12.3,23,0.00,,,0.00,proprietary,2013-03-04 02:11:00,
2013-03-03 19:17:00,65.6,27.1,27.83,SE,137,12.4,14.0,23,0.00,,,0.00,proprietary,2013-03-04 02:17:00,
2013-03-03 19:22:00,65.5,27.0,27.83,SE,140,12.7,15.0,23,0.00,,,0.00,proprietary,2013-03-04 02:22:00,
2013-03-03 19:28:00,65.2,26.9,27.83,SE,139,11.8,14.0,23,0.00,,,0.00,proprietary,2013-03-04 02:28:00,
2013-03-03 19:33:00,65.1,26.6,27.83,SE,141,13.2,16.5,23,0.00,,,0.00,proprietary,2013-03-04 02:33:00,
2013-03-03 19:38:00,65.2,26.3,27.83,SE,135,12.0,15.2,22,0.00,,,0.00,proprietary,2013-03-04 02:38:00,
2013-03-03 19:43:00,65.2,26.1,27.83,SE,137,13.4,15.6,22,0.00,,,0.00,proprietary,2013-03-04 02:43:00,
2013-03-03 19:49:00,65.2,26.1,27.83,SE,136,12.5,14.6,22,0.00,,,0.00,proprietary,2013-03-04 02:49:00,
2013-03-03 19:54:00,65.1,26.0,27.83,SE,139,12.6,15.4,22,0.00,,,0.00,proprietary,2013-03-04 02:54:00,
2013-03-03 19:59:00,65.0,26.0,27.83,SE,137,12.9,14.3,22,0.00,,,0.00,proprietary,2013-03-04 02:59:00,
2013-03-03 20:04:00,64.9,26.0,27.83,SE,131,10.6,11.8,22,0.00,,,0.00,proprietary,2013-03-04 03:04:00,
2013-03-03 20:10:00,64.0,26.2,27.83,SE,134,11.4,12.7,23,0.00,,,0.00,proprietary,2013-03-04 03:10:00,
2013-03-03 20:16:00,64.0,26.2,27.82,SE,127,11.8,14.4,23,0.00,,,0.00,proprietary,2013-03-04 03:16:00,
2013-03-03 20:21:00,64.0,26.2,27.82,SE,129,12.3,14.0,23,0.00,,,0.00,proprietary,2013-03-04 03:21:00,
2013-03-03 20:27:00,64.0,26.2,27.82,SE,127,12.0,13.9,23,0.00,,,0.00,proprietary,2013-03-04 03:27:00,
2013-03-03 20:32:00,64.0,26.1,27.83,SE,127,9.9,11.0,23,0.00,,,0.00,proprietary,2013-03-04 03:32:00,
2013-03-03 20:37:00,63.9,26.1,27.82,SE,126,12.0,13.6,23,0.00,,,0.00,proprietary,2013-03-04 03:37:00,
2013-03-03 20:42:00,63.8,26.0,27.82,SE,137,11.0,12.6,23,0.00,,,0.00,proprietary,2013-03-04 03:42:00,
2013-03-03 20:48:00,64.4,25.7,27.82,SE,142,11.3,13.1,22,0.00,,,0.00,proprietary,2013-03-04 03:48:00,
2013-03-03 20:53:00,65.1,25.5,27.82,SE,134,12.2,14.1,22,0.00,,,0.00,proprietary,2013-03-04 03:53:00,
2013-03-03 20:58:00,65.1,25.5,27.82,SE,138,13.0,15.6,22,0.00,,,0.00,proprietary,2013-03-04 03:58:00,
2013-03-03 21:04:00,64.6,25.7,27.82,SE,126,12.4,14.5,22,0.00,,,0.00,proprietary,2013-03-04 04:04:00,
2013-03-03 21:09:00,63.8,25.7,27.82,SE,129,11.0,11.7,23,0.00,,,0.00,proprietary,2013-03-04 04:09:00,
2013-03-03 21:15:00,63.8,25.6,27.82,SE,135,11.8,12.5,23,0.00,,,0.00,proprietary,2013-03-04 04:15:00,
2013-03-03 21:20:00,64.1,25.4,27.82,SE,136,12.2,13.6,22,0.00,,,0.00,proprietary,2013-03-04 04:20:00,
2013-03-03 21:26:00,64.4,25.2,27.82,SE,139,13.6,15.4,22,0.00,,,0.00,proprietary,2013-03-04 04:26:00,
2013-03-03 21:32:00,64.2,25.1,27.82,SE,136,12.2,14.5,22,0.00,,,0.00,proprietary,2013-03-04 04:32:00,
2013-03-03 21:38:00,64.2,24.9,27.82,SE,138,15.1,17.4,22,0.00,,,0.00,proprietary,2013-03-04 04:38:00,
2013-03-03 21:44:00,63.7,24.8,27.82,SE,144,11.7,13.2,22,0.00,,,0.00,proprietary,2013-03-04 04:44:00,
2013-03-03 21:50:00,63.7,24.6,27.82,SE,138,11.3,13.1,22,0.00,,,0.00,proprietary,2013-03-04 04:50:00,
2013-03-03 21:55:00,63.8,24.5,27.82,SE,146,10.4,12.3,22,0.00,,,0.00,proprietary,2013-03-04 04:55:00,
2013-03-03 22:01:00,63.8,24.4,27.82,SSE,147,10.9,13.0,22,0.00,,,0.00,proprietary,2013-03-04 05:01:00,
2013-03-03 22:02:00,63.9,24.3,27.82,SE,146,9.8,10.8,22,0.00,,,0.00,proprietary,2013-03-04 05:02:00,
2013-03-03 22:04:00,64.0,24.3,27.82,SSE,149,11.7,13.6,21,0.00,,,0.00,proprietary,2013-03-04 05:04:00,
2013-03-03 22:09:00,64.2,24.2,27.82,SSE,147,11.4,13.0,21,0.00,,,0.00,proprietary,2013-03-04 05:09:00,
2013-03-03 22:15:00,64.2,24.2,27.82,SSE,148,13.3,16.8,21,0.00,,,0.00,proprietary,2013-03-04 05:15:00,
2013-03-03 22:20:00,64.3,24.2,27.82,SE,146,11.6,13.5,21,0.00,,,0.00,proprietary,2013-03-04 05:20:00,
2013-03-03 22:26:00,63.9,24.3,27.82,SE,146,10.6,11.5,21,0.00,,,0.00,proprietary,2013-03-04 05:26:00,
2013-03-03 22:31:00,63.4,24.4,27.82,SSE,147,11.5,13.1,22,0.00,,,0.00,proprietary,2013-03-04 05:31:00,
2013-03-03 22:36:00,63.4,24.4,27.82,SSE,147,10.9,12.3,22,0.00,,,0.00,proprietary,2013-03-04 05:36:00,
2013-03-03 22:41:00,63.5,24.4,27.82,SSE,153,10.2,11.2,22,0.00,,,0.00,proprietary,2013-03-04 05:41:00,
2013-03-03 22:46:00,63.4,24.4,27.82,SSE,155,11.1,13.1,22,0.00,,,0.00,proprietary,2013-03-04 05:46:00,
2013-03-03 22:51:00,63.5,24.4,27.82,SSE,155,12.3,14.3,22,0.00,,,0.00,proprietary,2013-03-04 05:51:00,
2013-03-03 22:56:00,63.7,24.4,27.82,SSE,165,12.6,13.4,22,0.00,,,0.00,proprietary,2013-03-04 05:56:00,
2013-03-03 23:01:00,63.0,24.7,27.82,SSW,213,7.7,11.0,23,0.00,,,0.00,proprietary,2013-03-04 06:01:00,
2013-03-03 23:06:00,61.3,25.1,27.82,SSW,210,4.8,5.8,24,0.00,,,0.00,proprietary,2013-03-04 06:06:00,
2013-03-03 23:11:00,61.8,24.9,27.82,SSE,156,11.8,13.7,24,0.00,,,0.00,proprietary,2013-03-04 06:11:00,
2013-03-03 23:16:00,62.8,24.9,27.82,SSE,156,12.1,14.4,23,0.00,,,0.00,proprietary,2013-03-04 06:16:00,
2013-03-03 23:22:00,63.0,24.9,27.82,SSE,162,12.1,13.3,23,0.00,,,0.00,proprietary,2013-03-04 06:22:00,
2013-03-03 23:27:00,62.7,25.1,27.82,SSE,164,15.0,18.4,23,0.00,,,0.00,proprietary,2013-03-04 06:27:00,
2013-03-03 23:33:00,63.0,25.1,27.82,SSE,163,12.8,14.5,23,0.00,,,0.00,proprietary,2013-03-04 06:33:00,
2013-03-03 23:38:00,62.6,25.2,27.82,SSE,166,13.8,14.9,23,0.00,,,0.00,proprietary,2013-03-04 06:38:00,
2013-03-03 23:44:00,62.1,25.2,27.82,SSE,158,13.0,14.3,24,0.00,,,0.00,proprietary,2013-03-04 06:44:00,
2013-03-03 23:49:00,61.7,25.3,27.82,SSE,161,14.3,16.4,24,0.00,,,0.00,proprietary,2013-03-04 06:49:00,
2013-03-03 23:54:00,61.4,25.5,27.82,SSE,168,12.7,15.2,25,0.00,,,0.00,proprietary,2013-03-04 06:54:00,